NIMBUS 2 DEB, 37893

Orbit data source: Space-Track

NIMBUS 2 DEB, 37893 is space debris in SSO originally from a launch on Sun, 15 May 1966 UTC launched from the Air Force Western Test Range (AFWTR). Debris objects in space refer to the collection of defunct objects orbiting the Earth. Examples of debris include non-operational satellites, rocket bodies, and fragments generated from explosions, collisions, or faulty payload assembly.

Loading next visibility...
Identifier
37893, 1966-040AY
Orbit
SSO
Country
Flag of USUS
Related business
Manufacturer
Unknown
Mission
Spacecraft
Bus & Motor
Unknown
Mass
Unknown
Launch date (UTC)
1966-05-15 (60 years ago)
Launch vehicle
Unknown
Launch site
Air Force Western Test Range (AFWTR)
Object type
Payload
Rocket body
Debris
Shape & HBR
Unknown shape, 0.1 m
Radar Cross Section
Small (<0.1 m²)

Expand to show TLE details & history
Last TLE update: 5 days ago

TLE from 5 days ago
0 NIMBUS 2 DEB
1 37893U 66040AY  25342.66164257  .00002922  00000-0  47110-2 0  9999
2 37893 100.5110 301.8786 0058400 270.2436 275.1687 13.48780784658841
Epoch: 2025-12-08T15:52Z
TLE epoch observation values (Epoch: 2025-12-08T15:52:45.918Z)
Latitude
-4.80458°
Longitude
165.14084°
Altitude
1,076.584 km
Speed
7.315 km/s
True Right ascension
08h 03m 57s
True Declination
-4° 46' 38"
Sunlit
Object was in full shadow at epoch
Visualization orbit readout
Latitude
Unknown
Longitude
Unknown
Altitude
Unknown
Speed
Unknown
Apparent Right ascension
Unknown
Apparent Declination
Unknown
Sunlit
N/A
Visualization observer readout
Local Sidereal Time
10:18:00
Azimuth
Unknown
Elevation
Unknown
Doppler factor
Unknown
Orbital elements
Apogee altitude
1,117.615 km
Perigee altitude
1,030.573 km
Semi-major axis
7,452.231 km
Eccentricity
0.00584
Inclination
100.511°
RAAN
301.8786°
Arg. of periapsis
270.2436°
True anomaly
274.50178°
Mean anomaly
275.1687°
Eccentric anomaly
274.83528°
Mean motion
3.37376 °/min
Orbital period
106.71 mins
BSTAR
0.004711
Loading maneuver chart data...
Computing Atmospheric mass density...
Loading historical data...
Loading historical data...
Loading historical data...
Loading historical data...
Loading historical data...
Loading historical data...
Loading historical data...

Documentation

Showing up to 5 results
|